| time (UTC) | temp C | wind direction | speed KPH | gust KPH | rain 1hr cm | rain 24hr cm | rain mn cm | humidity % | barometer mb |
| 20260503211700 | 16 | 176 | 3.2 | 4.8 | 0.00 | 0.00 | 0.00 | 39 | 1005.2 |
| 20260503211155 | 16 | 168 | 4.8 | 6.4 | 0.00 | 0.00 | 0.00 | 40 | 1005.2 |
| 20260503210652 | 16 | 239 | 8.0 | 11.3 | 0.00 | 0.00 | 0.00 | 39 | 1005.4 |
| 20260503210148 | 16 | 159 | 4.8 | 9.7 | 0.00 | 0.00 | 0.00 | 39 | 1005.2 |
| 20260503205644 | 16 | 130 | 4.8 | 6.4 | 0.00 | 0.00 | 0.00 | 39 | 1005.4 |
| 20260503205140 | 16 | 190 | 6.4 | 6.4 | 0.00 | 0.00 | 0.00 | 40 | 1005.4 |
| 20260503204637 | 16 | 248 | 6.4 | 6.4 | 0.00 | 0.00 | 0.00 | 40 | 1005.4 |
| 20260503204135 | 16 | 149 | 4.8 | 9.7 | 0.00 | 0.00 | 0.00 | 41 | 1005.4 |
| 20260503203631 | 16 | 161 | 6.4 | 9.7 | 0.00 | 0.00 | 0.00 | 40 | 1005.3 |
| 20260503203129 | 16 | 164 | 6.4 | 9.7 | 0.00 | 0.00 | 0.00 | 41 | 1005.2 |
| 20260503202626 | 16 | 202 | 3.2 | 3.2 | 0.00 | 0.00 | 0.00 | 42 | 1005.3 |
| 20260503202124 | 16 | 175 | 6.4 | 9.7 | 0.00 | 0.00 | 0.00 | 40 | 1005.5 |
| 20260503201622 | 16 | 164 | 6.4 | 9.7 | 0.00 | 0.00 | 0.00 | 37 | 1005.5 |
| 20260503201119 | 17 | 133 | 4.8 | 6.4 | 0.00 | 0.00 | 0.00 | 39 | 1005.7 |
| 20260503200615 | 16 | 202 | 4.8 | 6.4 | 0.00 | 0.00 | 0.00 | 36 | 1005.8 |
| 20260503200112 | 17 | 157 | 6.4 | 9.7 | 0.00 | 0.00 | 0.00 | 38 | 1005.8 |
| 20260503195609 | 17 | 189 | 4.8 | 6.4 | 0.00 | 0.00 | 0.00 | 39 | 1005.7 |
| 20260503195106 | 17 | 265 | 4.8 | 9.7 | 0.00 | 0.00 | 0.00 | 40 | 1005.9 |
| 20260503194603 | 16 | 186 | 3.2 | 3.2 | 0.00 | 0.00 | 0.00 | 41 | 1005.8 |
| 20260503194058 | 16 | 234 | 11.3 | 14.5 | 0.00 | 0.00 | 0.00 | 37 | 1006.1 |
| 20260503193555 | 16 | 134 | 11.3 | 17.7 | 0.00 | 0.00 | 0.00 | 38 | 1006.1 |
| 20260503193050 | 17 | 253 | 11.3 | 16.1 | 0.00 | 0.00 | 0.00 | 37 | 1006.2 |
| 20260503192547 | 17 | 115 | 6.4 | 9.7 | 0.00 | 0.00 | 0.00 | 40 | 1006.2 |
| 20260503192043 | 16 | 169 | 3.2 | 3.2 | 0.00 | 0.00 | 0.00 | 40 | 1006.2 |
| 20260503191539 | 16 | 186 | 4.8 | 4.8 | 0.00 | 0.00 | 0.00 | 41 | 1006.5 |
| 20260503191036 | 16 | 231 | 8.0 | 11.3 | 0.00 | 0.00 | 0.00 | 40 | 1006.4 |
| 20260503190533 | 16 | 148 | 6.4 | 9.7 | 0.00 | 0.00 | 0.00 | 39 | 1006.7 |
| 20260503190031 | 17 | 166 | 4.8 | 6.4 | 0.00 | 0.00 | 0.00 | 37 | 1006.6 |
| 20260503185527 | 17 | 155 | 4.8 | 6.4 | 0.00 | 0.00 | 0.00 | 40 | 1006.7 |
| 20260503185026 | 17 | 83 | 4.8 | 4.8 | 0.00 | 0.00 | 0.00 | 40 | 1006.7 |
| 20260503184523 | 16 | 179 | 4.8 | 6.4 | 0.00 | 0.00 | 0.00 | 40 | 1006.9 |
| 20260503184020 | 16 | 149 | 3.2 | 3.2 | 0.00 | 0.00 | 0.00 | 41 | 1006.8 |
| 20260503183516 | 16 | 176 | 8.0 | 11.3 | 0.00 | 0.00 | 0.00 | 38 | 1006.7 |
| 20260503183013 | 16 | 150 | 0.0 | 1.6 | 0.00 | 0.00 | 0.00 | 40 | 1006.8 |
| 20260503182512 | 16 | 188 | 4.8 | 6.4 | 0.00 | 0.00 | 0.00 | 41 | 1006.8 |
| 20260503182009 | 17 | 310 | 12.9 | 16.1 | 0.00 | 0.00 | 0.00 | 38 | 1007.0 |
| 20260503181506 | 16 | 162 | 8.0 | 9.7 | 0.00 | 0.00 | 0.00 | 38 | 1006.8 |
| 20260503181002 | 16 | 38 | 3.2 | 3.2 | 0.00 | 0.00 | 0.00 | 40 | 1007.0 |
| 20260503180500 | 16 | 179 | 3.2 | 4.8 | 0.00 | 0.00 | 0.00 | 40 | 1007.2 |
| 20260503175956 | 16 | 135 | 4.8 | 6.4 | 0.00 | 0.00 | 0.00 | 42 | 1007.2 |
| 20260503175455 | 16 | 149 | 6.4 | 9.7 | 0.00 | 0.00 | 0.00 | 38 | 1007.2 |
| 20260503174950 | 17 | 202 | 4.8 | 6.4 | 0.00 | 0.00 | 0.00 | 40 | 1007.2 |
| 20260503174449 | 16 | 146 | 3.2 | 3.2 | 0.00 | 0.00 | 0.00 | 44 | 1007.4 |
| 20260503173944 | 16 | 190 | 6.4 | 6.4 | 0.00 | 0.00 | 0.00 | 41 | 1007.4 |
| 20260503173440 | 16 | 151 | 3.2 | 4.8 | 0.00 | 0.00 | 0.00 | 45 | 1007.4 |
| 20260503172937 | 15 | 185 | 3.2 | 4.8 | 0.00 | 0.00 | 0.00 | 43 | 1007.6 |
| 20260503172434 | 16 | 175 | 1.6 | 1.6 | 0.00 | 0.00 | 0.00 | 44 | 1007.7 |
| 20260503171930 | 16 | 192 | 3.2 | 3.2 | 0.00 | 0.00 | 0.00 | 43 | 1007.7 |
| 20260503171427 | 15 | 153 | 1.6 | 1.6 | 0.00 | 0.00 | 0.00 | 45 | 1007.9 |
| 20260503170925 | 16 | 164 | 3.2 | 4.8 | 0.00 | 0.00 | 0.00 | 44 | 1007.9 |
| 20260503170421 | 15 | 276 | 6.4 | 12.9 | 0.00 | 0.00 | 0.00 | 43 | 1007.9 |
| 20260503150813 | 12 | 145 | 1.6 | 1.6 | 0.00 | 0.00 | 0.00 | 47 | 1008.8 |
| 20260503150309 | 12 | 170 | 4.8 | 11.3 | 0.00 | 0.00 | 0.00 | 46 | 1009.1 |
| 20260503140234 | 11 | 196 | 3.2 | 3.2 | 0.00 | 0.00 | 0.00 | 47 | 1008.9 |
| 20260503131203 | 8 | 188 | 3.2 | 3.2 | 0.00 | 0.00 | 0.00 | 55 | 1009.6 |
| 20260503130700 | 8 | 163 | 3.2 | 3.2 | 0.00 | 0.00 | 0.00 | 53 | 1009.6 |
| 20260503130158 | 8 | 185 | 4.8 | 6.4 | 0.00 | 0.00 | 0.00 | 54 | 1009.7 |
| 20260503120124 | 5 | 178 | 1.6 | 3.2 | 0.00 | 0.00 | 0.00 | 60 | 1009.6 |
| 20260503110550 | 3 | 163 | 0.0 | 0.0 | 0.00 | 0.00 | 0.00 | 73 | 1009.6 |
| 20260503090438 | 3 | 164 | 0.0 | 0.0 | 0.00 | 0.00 | 0.00 | 75 | 1009.2 |
| 20260503081404 | 3 | 160 | 0.0 | 0.0 | 0.00 | 0.00 | 0.00 | 76 | 1009.4 |
| 20260503080901 | 3 | 167 | 0.0 | 0.0 | 0.00 | 0.00 | 0.00 | 75 | 1009.4 |
| 20260503080358 | 3 | 155 | 0.0 | 0.0 | 0.00 | 0.00 | 0.00 | 76 | 1009.4 |
| 20260503072834 | 3 | 153 | 1.6 | 1.6 | 0.00 | 0.00 | 0.00 | 74 | 1009.4 |
| 20260503072331 | 3 | 153 | 0.0 | 0.0 | 0.00 | 0.00 | 0.00 | 75 | 1009.4 |
| 20260503071827 | 3 | 153 | 1.6 | 1.6 | 0.00 | 0.00 | 0.00 | 76 | 1009.3 |
| 20260503071325 | 3 | 161 | 0.0 | 1.6 | 0.00 | 0.00 | 0.00 | 77 | 1009.3 |
| 20260503070821 | 3 | 156 | 0.0 | 0.0 | 0.00 | 0.00 | 0.00 | 76 | 1009.3 |
| 20260503070319 | 3 | 153 | 0.0 | 0.0 | 0.00 | 0.00 | 0.00 | 76 | 1009.4 |
| 20260503060244 | 3 | 146 | 0.0 | 0.0 | 0.00 | 0.00 | 0.00 | 82 | 1009.8 |
| 20260503054731 | 3 | 156 | 0.0 | 0.0 | 0.00 | 0.00 | 0.00 | 82 | 1009.7 |
| 20260503054228 | 3 | 154 | 0.0 | 0.0 | 0.00 | 0.00 | 0.00 | 82 | 1010.0 |
| 20260503053726 | 3 | 159 | 0.0 | 0.0 | 0.00 | 0.00 | 0.00 | 82 | 1009.7 |
| 20260503053225 | 3 | 162 | 0.0 | 0.0 | 0.00 | 0.00 | 0.00 | 82 | 1009.6 |
| 20260503052720 | 3 | 161 | 0.0 | 0.0 | 0.00 | 0.00 | 0.00 | 82 | 1009.6 |
| 20260503052217 | 3 | 161 | 0.0 | 0.0 | 0.00 | 0.00 | 0.00 | 82 | 1009.9 |
| 20260503051712 | 3 | 157 | 0.0 | 0.0 | 0.00 | 0.00 | 0.00 | 82 | 1009.5 |
| 20260503051210 | 3 | 161 | 0.0 | 0.0 | 0.00 | 0.00 | 0.00 | 82 | 1010.0 |
| 20260503050707 | 3 | 152 | 0.0 | 0.0 | 0.00 | 0.00 | 0.00 | 81 | 1010.0 |
| 20260503050203 | 3 | 169 | 1.6 | 1.6 | 0.00 | 0.00 | 0.00 | 81 | 1009.7 |
| 20260503045701 | 3 | 159 | 0.0 | 0.0 | 0.00 | 0.00 | 0.00 | 81 | 1009.8 |
| 20260503045158 | 3 | 158 | 0.0 | 0.0 | 0.00 | 0.00 | 0.00 | 81 | 1010.0 |
| 20260503044654 | 3 | 159 | 0.0 | 0.0 | 0.00 | 0.00 | 0.00 | 82 | 1009.8 |
| 20260503044152 | 4 | 159 | 0.0 | 0.0 | 0.00 | 0.00 | 0.00 | 81 | 1009.9 |
| 20260503043648 | 4 | 153 | 0.0 | 0.0 | 0.00 | 0.00 | 0.00 | 81 | 1009.9 |
| 20260503043146 | 4 | 156 | 0.0 | 0.0 | 0.00 | 0.00 | 0.00 | 80 | 1009.8 |
| 20260503042642 | 4 | 156 | 0.0 | 0.0 | 0.00 | 0.00 | 0.00 | 79 | 1010.1 |
| 20260503042138 | 5 | 153 | 0.0 | 0.0 | 0.00 | 0.00 | 0.00 | 79 | 1009.9 |
| 20260503041635 | 5 | 155 | 0.0 | 0.0 | 0.00 | 0.00 | 0.00 | 77 | 1009.8 |
| 20260503041132 | 5 | 155 | 0.0 | 0.0 | 0.00 | 0.00 | 0.00 | 76 | 1010.0 |
| 20260503040630 | 5 | 153 | 0.0 | 0.0 | 0.00 | 0.00 | 0.00 | 75 | 1010.0 |
| 20260503040127 | 5 | 160 | 0.0 | 0.0 | 0.00 | 0.00 | 0.00 | 76 | 1010.0 |
| 20260503035623 | 5 | 159 | 0.0 | 0.0 | 0.00 | 0.51 | 0.51 | 75 | 1010.1 |
| 20260503035121 | 5 | 157 | 1.6 | 1.6 | 0.00 | 0.51 | 0.51 | 74 | 1010.1 |
| 20260503034618 | 5 | 157 | 0.0 | 0.0 | 0.00 | 0.51 | 0.51 | 73 | 1010.1 |
| 20260503034116 | 5 | 158 | 0.0 | 0.0 | 0.00 | 0.51 | 0.51 | 73 | 1010.0 |
| 20260503033613 | 6 | 158 | 0.0 | 0.0 | 0.00 | 0.51 | 0.51 | 73 | 1009.9 |
| 20260503033110 | 6 | 166 | 0.0 | 1.6 | 0.00 | 0.51 | 0.51 | 71 | 1010.2 |
| 20260503032609 | 6 | 155 | 1.6 | 1.6 | 0.00 | 0.51 | 0.51 | 71 | 1010.1 |
| 20260503032107 | 6 | 226 | 1.6 | 3.2 | 0.00 | 0.51 | 0.51 | 72 | 1010.1 |
| 20260503031604 | 6 | 180 | 0.0 | 0.0 | 0.00 | 0.51 | 0.51 | 72 | 1010.1 |
| 20260503031101 | 6 | 156 | 0.0 | 0.0 | 0.00 | 0.51 | 0.51 | 72 | 1010.1 |
| 20260503030557 | 6 | 159 | 1.6 | 1.6 | 0.00 | 0.51 | 0.51 | 72 | 1010.4 |
| 20260503030054 | 6 | 170 | 0.0 | 0.0 | 0.00 | 0.51 | 0.51 | 73 | 1010.4 |
| 20260503025551 | 6 | 157 | 0.0 | 0.0 | 0.00 | 0.51 | 0.51 | 72 | 1010.1 |
| 20260503025049 | 6 | 155 | 0.0 | 1.6 | 0.00 | 0.51 | 0.51 | 71 | 1010.3 |
| 20260503024544 | 6 | 159 | 0.0 | 0.0 | 0.00 | 0.51 | 0.51 | 71 | 1010.4 |
| 20260503024042 | 6 | 157 | 0.0 | 0.0 | 0.00 | 0.51 | 0.51 | 70 | 1010.4 |
| 20260503023538 | 6 | 152 | 0.0 | 0.0 | 0.00 | 0.51 | 0.51 | 70 | 1010.2 |
| 20260503023036 | 6 | 155 | 0.0 | 0.0 | 0.00 | 0.51 | 0.51 | 69 | 1010.4 |
| 20260503022526 | 6 | 155 | 0.0 | 1.6 | 0.00 | 0.51 | 0.51 | 67 | 1010.5 |
| 20260503022021 | 6 | 157 | 0.0 | 0.0 | 0.00 | 0.51 | 0.51 | 66 | 1010.5 |
| 20260503021518 | 6 | 165 | 0.0 | 1.6 | 0.00 | 0.51 | 0.51 | 64 | 1010.5 |
| 20260503021015 | 6 | 155 | 0.0 | 1.6 | 0.00 | 0.51 | 0.51 | 66 | 1010.4 |
| 20260503020512 | 6 | 156 | 1.6 | 1.6 | 0.00 | 0.51 | 0.51 | 64 | 1010.3 |
| 20260503020009 | 6 | 151 | 0.0 | 1.6 | 0.00 | 0.51 | 0.51 | 63 | 1010.4 |
| 20260503015505 | 6 | 155 | 0.0 | 0.0 | 0.00 | 0.51 | 0.51 | 66 | 1010.2 |
| 20260503015002 | 6 | 159 | 0.0 | 0.0 | 0.00 | 0.51 | 0.51 | 65 | 1010.4 |
| 20260503014458 | 6 | 163 | 0.0 | 0.0 | 0.00 | 0.51 | 0.51 | 63 | 1010.3 |
| 20260503013957 | 6 | 183 | 1.6 | 1.6 | 0.00 | 0.51 | 0.51 | 62 | 1010.4 |
| 20260503013453 | 7 | 151 | 0.0 | 0.0 | 0.00 | 0.51 | 0.51 | 63 | 1010.3 |
| 20260503012950 | 7 | 152 | 0.0 | 0.0 | 0.00 | 0.51 | 0.51 | 64 | 1010.3 |
| 20260503012449 | 7 | 151 | 0.0 | 0.0 | 0.00 | 0.51 | 0.51 | 61 | 1010.3 |
| 20260503011944 | 7 | 157 | 0.0 | 0.0 | 0.00 | 0.51 | 0.51 | 61 | 1010.4 |
| 20260503011441 | 7 | 160 | 0.0 | 0.0 | 0.00 | 0.51 | 0.51 | 60 | 1010.4 |
| 20260503010939 | 7 | 157 | 1.6 | 1.6 | 0.00 | 0.51 | 0.51 | 58 | 1010.1 |
| 20260503010436 | 7 | 12 | 3.2 | 4.8 | 0.00 | 0.51 | 0.51 | 57 | 1010.2 |
| 20260503005933 | 7 | 141 | 0.0 | 0.0 | 0.00 | 0.51 | 0.51 | 56 | 1010.1 |
| 20260503005430 | 7 | 159 | 0.0 | 0.0 | 0.00 | 0.51 | 0.51 | 57 | 1010.0 |
| 20260503004927 | 7 | 149 | 0.0 | 0.0 | 0.00 | 0.51 | 0.51 | 55 | 1010.2 |
| 20260503004423 | 7 | 156 | 0.0 | 1.6 | 0.00 | 0.51 | 0.51 | 55 | 1010.1 |
| 20260503003921 | 7 | 149 | 0.0 | 0.0 | 0.00 | 0.51 | 0.51 | 55 | 1010.1 |
| 20260503003417 | 7 | 107 | 0.0 | 0.0 | 0.00 | 0.51 | 0.51 | 54 | 1009.8 |
| 20260503002915 | 7 | 138 | 0.0 | 0.0 | 0.00 | 0.51 | 0.51 | 53 | 1010.0 |
| 20260503002407 | 7 | 130 | 0.0 | 0.0 | 0.00 | 0.51 | 0.51 | 55 | 1010.0 |
| 20260503001903 | 7 | 145 | 0.0 | 0.0 | 0.00 | 0.51 | 0.51 | 56 | 1010.1 |
| 20260503001359 | 7 | 132 | 0.0 | 0.0 | 0.00 | 0.51 | 0.51 | 58 | 1010.1 |
| 20260503000857 | 7 | 160 | 0.0 | 0.0 | 0.00 | 0.51 | 0.51 | 58 | 1010.2 |
| 20260503000354 | 7 | 135 | 0.0 | 0.0 | 0.00 | 0.51 | 0.51 | 56 | 1010.1 |
| 20260502235850 | 7 | 137 | 1.6 | 1.6 | 0.00 | 0.51 | 0.51 | 58 | 1010.0 |
| 20260502235347 | 7 | 150 | 0.0 | 1.6 | 0.00 | 0.51 | 0.51 | 59 | 1010.1 |
| 20260502234845 | 7 | 159 | 0.0 | 0.0 | 0.00 | 0.51 | 0.51 | 56 | 1010.0 |
| 20260502234341 | 7 | 151 | 0.0 | 0.0 | 0.00 | 0.51 | 0.51 | 58 | 1010.0 |
| 20260502233838 | 7 | 120 | 1.6 | 1.6 | 0.00 | 0.51 | 0.51 | 57 | 1010.0 |
| 20260502233334 | 7 | 152 | 0.0 | 0.0 | 0.00 | 0.51 | 0.51 | 57 | 1009.9 |
| 20260502232831 | 7 | 143 | 0.0 | 1.6 | 0.00 | 0.51 | 0.51 | 56 | 1010.0 |
| 20260502232327 | 7 | 167 | 1.6 | 1.6 | 0.00 | 0.51 | 0.51 | 55 | 1010.1 |
| 20260502231824 | 7 | 166 | 0.0 | 0.0 | 0.00 | 0.51 | 0.51 | 57 | 1010.2 |
| 20260502231322 | 7 | 143 | 0.0 | 0.0 | 0.00 | 0.51 | 0.51 | 56 | 1010.1 |
| 20260502230820 | 7 | 141 | 1.6 | 1.6 | 0.00 | 0.51 | 0.51 | 57 | 1010.2 |
| 20260502230317 | 7 | 151 | 0.0 | 0.0 | 0.00 | 0.51 | 0.51 | 55 | 1010.1 |
| 20260502225814 | 7 | 167 | 0.0 | 1.6 | 0.00 | 0.51 | 0.51 | 54 | 1010.1 |
| 20260502225311 | 8 | 207 | 1.6 | 3.2 | 0.00 | 0.51 | 0.51 | 54 | 1010.1 |
| 20260502224807 | 8 | 216 | 3.2 | 3.2 | 0.00 | 0.51 | 0.51 | 52 | 1010.2 |
| 20260502224304 | 8 | 353 | 0.0 | 1.6 | 0.00 | 0.51 | 0.51 | 52 | 1010.1 |
| 20260502223801 | 8 | 331 | 3.2 | 3.2 | 0.00 | 0.51 | 0.51 | 54 | 1010.2 |
| 20260502223300 | 8 | 150 | 0.0 | 0.0 | 0.00 | 0.51 | 0.51 | 54 | 1010.2 |
| 20260502222757 | 8 | 179 | 1.6 | 1.6 | 0.00 | 0.51 | 0.51 | 54 | 1010.3 |
| 20260502222254 | 8 | 97 | 0.0 | 1.6 | 0.00 | 0.51 | 0.51 | 53 | 1010.0 |
| 20260502221749 | 8 | 70 | 1.6 | 3.2 | 0.00 | 0.51 | 0.51 | 53 | 1010.4 |
| 20260502221246 | 8 | 151 | 1.6 | 1.6 | 0.00 | 0.51 | 0.51 | 55 | 1010.2 |
| 20260502220743 | 8 | 64 | 1.6 | 4.8 | 0.00 | 0.51 | 0.51 | 58 | 1010.2 |
| 20260502220238 | 8 | 88 | 1.6 | 3.2 | 0.00 | 0.51 | 0.51 | 56 | 1010.3 |
| 20260502215736 | 8 | 53 | 1.6 | 3.2 | 0.00 | 0.51 | 0.51 | 58 | 1010.4 |
| 20260502215233 | 8 | 116 | 1.6 | 3.2 | 0.00 | 0.51 | 0.51 | 57 | 1010.4 |
| 20260502214730 | 8 | 118 | 0.0 | 1.6 | 0.00 | 0.51 | 0.51 | 58 | 1010.3 |
| 20260502214227 | 8 | 132 | 3.2 | 3.2 | 0.00 | 0.51 | 0.51 | 57 | 1010.1 |
| 20260502213724 | 8 | 139 | 1.6 | 1.6 | 0.00 | 0.51 | 0.51 | 58 | 1010.3 |
| 20260502213222 | 8 | 4 | 0.0 | 1.6 | 0.00 | 0.51 | 0.51 | 58 | 1010.2 |
| 20260502212720 | 8 | 225 | 3.2 | 4.8 | 0.00 | 0.51 | 0.51 | 59 | 1010.3 |
| 20260502212218 | 8 | 9 | 1.6 | 3.2 | 0.00 | 0.51 | 0.51 | 58 | 1010.0 |